ARIANE 5 R/B

基本信息
目录编号:
43059
目录名称:
ARIANE 5 R/B
国际标识:
2017-079E
轨道中心:
EARTH
物体状态:
在轨
发射日期:
2017-12-12 UTC
国别:
法国 (FR)
轨道信息
数据来源: 国际轨道数据
星历时间: 2026-07-12T23:56:48+0800
半长轴: 29290.108km
偏心率: 0.0002644
轨道倾角: 55.101°
近地点辐角: 279.989°
升交点赤经: 217.823°
平近点角: 80.052°
近地点: 22904.226km
远地点: 22919.716km
周期: 831.460分钟
每日圈数: 1.731894
详细信息
发射场:
FRGUI
轨道高度:
MEO
数据来源:
AOE Integration Group
参考系:
TEME
时间系统:
UTC
历元类型:
SGP4
2D轨道图
3D轨道图
轨道高度分析图
轨道倾角分析图
轨道综合分析图
查看轨道综合分析图